RH
44 39 37 34 31 30 29 27 21 20 14 19 30 36 40 47 50 65 71 68 62 54 30 15 11 12 16 16 16 19 21 24 25 26 28 23 21 23 25 24 21 21 22
39 36 36 34 31 31 30 24 20 26 20 19 27 36 42 49 58 61 59 53 31 19 13 13 12 16 17 18 19 20 21 21 20 18 18 20 20 25 31 29 26 23 22
37 35 35 33 33 33 25 23 18 17 13 15 22 27 34 38 41 40 30 21 17 13 13 13 17 19 19 20 19 20 19 18 17 16 15 16 18 21 23 23 22 25 26
38 37 35 34 33 28 23 20 16 15 13 11 12 17 21 22 21 19 16 11 13 13 14 17 18 18 18 19 22 22 19 18 17 17 16 16 17 17 20 25 27 21 24
40 38 36 37 30 25 21 18 16 19 15 13 10 10 10 10 10 10 11 13 15 14 15 16 17 17 18 19 22 23 24 24 24 24 24 24 24 25 25 24 23 22 22
40 38 38 36 29 25 20 18 16 19 19 15 13 12 12 12 13 14 14 14 14 14 14 15 18 20 22 24 26 27 27 27 27 26 26 27 28 29 29 28 27 26 25
40 39 40 39 31 26 21 18 18 18 22 19 15 15 14 14 14 14 14 14 14 15 17 20 22 23 24 25 26 26 27 27 28 29 30 31 33 34 33 31 29 27 26
43 46 45 38 32 28 24 20 19 18 21 23 17 16 15 15 15 16 17 18 19 20 21 22 23 23 23 24 26 28 29 30 30 33 33 34 35 35 33 32 30 29 28
53 54 51 40 34 30 28 26 24 23 24 26 21 19 18 18 18 18 19 20 21 23 24 25 25 24 25 26 27 28 28 29 30 33 35 37 36 32 31 30 29 29 29
58 56 53 45 40 34 29 28 28 29 31 32 29 26 23 22 21 21 21 22 24 25 26 27 26 26 26 27 27 27 28 29 30 33 35 36 34 31 30 30 31 30 29
66 58 55 50 45 39 33 30 30 30 32 36 36 31 28 26 25 23 23 23 24 26 28 28 27 27 27 27 27 27 27 29 30 33 34 33 33 33 32 33 34 35 33
73 67 59 53 49 45 38 33 32 31 32 33 36 36 33 31 29 27 25 24 24 24 25 26 25 25 26 26 27 27 28 28 29 32 33 34 35 35 35 36 36 37 37
87 79 70 60 56 51 45 38 35 34 32 33 36 37 37 35 34 31 27 25 24 23 23 23 24 25 26 26 27 28 30 31 31 31 31 34 36 37 38 38 38 39 39
98 89 79 72 63 58 52 45 40 38 35 33 33 38 39 40 38 35 29 26 24 23 23 23 23 24 25 27 28 30 31 32 31 32 33 34 37 39 40 42 42 41 40
95 94 88 76 69 62 59 55 49 44 40 36 34 37 39 40 41 40 36 31 26 24 23 23 25 26 27 28 30 31 31 30 31 34 35 37 40 42 44 45 45 44 40
74 88 97 88 77 66 65 62 58 55 54 49 41 37 38 40 42 42 39 34 31 28 26 26 28 30 31 33 34 34 34 34 36 39 42 43 44 44 44 43 44 44 38
76 76 85 96 92 82 73 68 66 62 61 58 55 46 43 41 42 43 41 38 37 33 32 33 35 35 36 37 37 37 38 40 42 44 48 49 46 45 44 44 45 46 51
84 82 81 81 95 93 86 82 76 70 68 64 64 58 50 44 41 43 44 42 43 43 42 41 41 40 40 40 40 40 41 44 46 46 47 49 52 43 43 43 47 45 42
74 78 75 80 79 96 92 90 84 77 71 68 64 63 55 48 43 43 46 46 46 48 48 49 50 48 45 43 43 43 43 42 42 45 45 45 43 41 41 42 41 41 40
67 70 73 70 72 76 89 96 88 84 77 70 68 69 60 53 50 48 49 51 52 53 54 55 52 50 47 47 43 43 43 41 42 37 38 38 39 40 43 42 43 41 39
65 71 75 76 75 72 77 90 89 85 80 73 74 75 69 60 54 54 52 53 52 51 52 52 51 51 47 45 46 39 36 38 39 36 34 32 35 39 42 52 45 44 42
57 62 73 78 79 80 74 83 84 88 86 87 92 85 82 80 66 62 55 55 60 57 53 52 54 47 45 47 45 46 39 37 37 37 35 35 38 44 51 52 49 46 44
57 60 61 73 74 79 78 76 75 82 84 86 83 80 80 83 81 74 67 66 64 59 52 49 48 48 46 44 44 46 46 45 42 41 44 43 45 47 53 53 48 49 47
58 59 67 73 70 78 79 76 72 74 80 83 88 81 82 86 83 78 72 69 61 56 52 49 47 46 46 44 42 40 40 43 48 43 41 43 48 48 48 49 46 51 51
57 63 69 71 70 76 78 79 76 84 80 83 83 81 77 76 71 67 65 62 60 55 53 52 50 47 44 42 40 38 37 37 39 42 41 42 45 46 48 47 47 51 49
57 57 60 65 67 74 75 77 79 80 82 87 87 79 76 72 69 63 59 57 54 53 52 50 47 45 42 40 39 40 39 38 39 42 45 48 49 50 50 51 50 51 59